usa flag      colorado flag

Language: 

TigerDenWX History Data from Weather Underground


TigerDenWX Weather Station Historical Data
 
Daily Summary for April 24, 2018 Units:  English    Metric   Both
« Previous Day
Next Day »
Daily Weekly Monthly Yearly Custom
  Current: High: Low: Average:
Temperature: 37.6 °F TemperatureF °F 33.1 °F 36.3 °F
Dew Point: 34.4 °F DewpointF °F 30.5 °F 32.4 °F
Humidity: 88 % Humidity % 76 % 85 %
Wind Speed: 0.0 mph WindSpeedMPH mph 0.0 mph 2.1 mph
Wind Gust: 5.0 mph WindSpeedGustMPH mph - -
Wind:Calm - - SSE
Pressure: 30.41 in PressureIn in 30.12 in -
Precipitation: 0.00 in      
Historical Graphs
 
 
Tabular Data for April 24, 2018
Time Temperature Dew Point Pressure Wind Wind Speed Wind Gust Humidity Rainfall Rate (Hourly) solar
TemperatureF °F DewpointF °F PressureIn in Calm     Humidity % HourlyPrecipIn in SolarRadiationWatts/m^2 W/m2
00:01 41.6 °F 35.9 °F 30.12 in North 3.0 mph 11.0 mph 80 % 0.00 in 0 W/m2
00:03 41.6 °F 35.9 °F 30.12 in North 6.0 mph 11.0 mph 80 % 0.00 in 0 W/m2
00:08 41.4 °F 35.4 °F 30.12 in NNE 1.0 mph 12.0 mph 79 % 0.00 in 0 W/m2
00:13 41.3 °F 35.3 °F 30.12 in NNW 2.0 mph 12.0 mph 79 % 0.00 in 0 W/m2
00:18 41.4 °F 35.7 °F 30.13 in NW 3.0 mph 9.0 mph 80 % 0.00 in 0 W/m2
00:23 41.2 °F 35.5 °F 30.13 in Calm   7.0 mph 80 % 0.00 in 0 W/m2
00:29 40.9 °F 35.5 °F 30.12 in NNW 3.0 mph 7.0 mph 81 % 0.00 in 0 W/m2
00:33 40.6 °F 35.2 °F 30.12 in North 2.0 mph 9.0 mph 81 % 0.00 in 0 W/m2
00:38 40.3 °F 35.2 °F 30.12 in NW 3.0 mph 9.0 mph 82 % 0.00 in 0 W/m2
00:43 40.0 °F 35.3 °F 30.13 in Calm   7.0 mph 83 % 0.00 in 0 W/m2
00:48 39.8 °F 35.4 °F 30.13 in NE 1.0 mph 8.0 mph 84 % 0.00 in 0 W/m2
00:53 39.4 °F 35.0 °F 30.13 in NNE 4.0 mph 8.0 mph 84 % 0.00 in 0 W/m2
00:58 39.2 °F 35.1 °F 30.14 in North 1.0 mph 8.0 mph 85 % 0.00 in 0 W/m2
01:03 39.0 °F 34.9 °F 30.14 in NE 1.0 mph 8.0 mph 85 % 0.00 in 0 W/m2
01:08 38.9 °F 35.1 °F 30.15 in Calm   8.0 mph 86 % 0.00 in 0 W/m2
01:13 38.9 °F 35.1 °F 30.16 in North 1.0 mph 6.0 mph 86 % 0.00 in 0 W/m2
01:18 38.9 °F 35.1 °F 30.16 in NNE 1.0 mph 4.0 mph 86 % 0.00 in 0 W/m2
01:23 38.9 °F 35.1 °F 30.16 in NE 2.0 mph 5.0 mph 86 % 0.00 in 0 W/m2
01:28 38.7 °F 34.9 °F 30.16 in NNE 2.0 mph 8.0 mph 86 % 0.00 in 0 W/m2
01:33 38.5 °F 34.7 °F 30.16 in North 3.0 mph 8.0 mph 86 % 0.00 in 0 W/m2
01:38 38.3 °F 34.5 °F 30.16 in NNE 1.0 mph 6.0 mph 86 % 0.00 in 0 W/m2
01:43 38.1 °F 34.0 °F 30.16 in Calm   7.0 mph 85 % 0.00 in 0 W/m2
01:48 37.9 °F 33.8 °F 30.16 in North 1.0 mph 7.0 mph 85 % 0.00 in 0 W/m2
01:49 37.9 °F 33.8 °F 30.16 in NE 3.0 mph 7.0 mph 85 % 0.00 in 0 W/m2
01:54 37.9 °F 33.8 °F 30.16 in ENE 4.0 mph 6.0 mph 85 % 0.00 in 0 W/m2
01:59 37.8 °F 33.7 °F 30.16 in NE 1.0 mph 5.0 mph 85 % 0.00 in 0 W/m2
02:04 37.8 °F 33.7 °F 30.16 in NNE 1.0 mph 4.0 mph 85 % 0.00 in 0 W/m2
02:09 37.8 °F 33.7 °F 30.16 in Calm   7.0 mph 85 % 0.00 in 0 W/m2
02:14 37.8 °F 33.4 °F 30.16 in North 3.0 mph 7.0 mph 84 % 0.00 in 0 W/m2
02:19 37.8 °F 33.4 °F 30.15 in NNE 2.0 mph 6.0 mph 84 % 0.00 in 0 W/m2
02:24 37.9 °F 33.5 °F 30.15 in Calm   6.0 mph 84 % 0.00 in 0 W/m2
02:30 37.9 °F 33.5 °F 30.15 in Calm   5.0 mph 84 % 0.00 in 0 W/m2
02:35 38.0 °F 33.6 °F 30.15 in North 6.0 mph 7.0 mph 84 % 0.00 in 0 W/m2
02:40 38.0 °F 33.6 °F 30.15 in NNE 2.0 mph 7.0 mph 84 % 0.00 in 0 W/m2
02:45 37.9 °F 33.2 °F 30.15 in NE 1.0 mph 7.0 mph 83 % 0.00 in 0 W/m2
02:50 37.7 °F 33.0 °F 30.15 in NNW 1.0 mph 8.0 mph 83 % 0.00 in 0 W/m2
02:55 37.4 °F 32.7 °F 30.15 in North 1.0 mph 9.0 mph 83 % 0.00 in 0 W/m2
03:00 37.3 °F 32.6 °F 30.15 in NNE 4.0 mph 9.0 mph 83 % 0.00 in 0 W/m2
03:05 37.1 °F 32.4 °F 30.15 in Calm   7.0 mph 83 % 0.00 in 0 W/m2
03:10 37.0 °F 32.6 °F 30.14 in Calm   8.0 mph 84 % 0.00 in 0 W/m2
03:15 37.0 °F 32.9 °F 30.15 in NE 7.0 mph 8.0 mph 85 % 0.00 in 0 W/m2
03:20 36.8 °F 32.7 °F 30.16 in NNE 4.0 mph 7.0 mph 85 % 0.00 in 0 W/m2
03:25 36.7 °F 32.6 °F 30.16 in NNW 6.0 mph 8.0 mph 85 % 0.00 in 0 W/m2
03:30 36.6 °F 32.8 °F 30.16 in NNE 1.0 mph 8.0 mph 86 % 0.00 in 0 W/m2
03:35 36.5 °F 32.7 °F 30.17 in North 2.0 mph 8.0 mph 86 % 0.00 in 0 W/m2
03:40 36.4 °F 32.6 °F 30.17 in Calm   7.0 mph 86 % 0.00 in 0 W/m2
03:45 36.3 °F 32.8 °F 30.18 in Calm   5.0 mph 87 % 0.00 in 0 W/m2
03:50 36.2 °F 32.7 °F 30.18 in NNE 1.0 mph 5.0 mph 87 % 0.00 in 0 W/m2
03:55 36.1 °F 32.6 °F 30.18 in NNE 4.0 mph 6.0 mph 87 % 0.00 in 0 W/m2
04:00 36.0 °F 32.5 °F 30.18 in NNW 1.0 mph 6.0 mph 87 % 0.00 in 0 W/m2
04:05 35.9 °F 32.7 °F 30.19 in North 2.0 mph 5.0 mph 88 % 0.00 in 0 W/m2
04:10 35.7 °F 32.5 °F 30.19 in NW 2.0 mph 9.0 mph 88 % 0.00 in 0 W/m2
04:15 35.5 °F 32.0 °F 30.19 in Calm   9.0 mph 87 % 0.00 in 0 W/m2
04:20 35.4 °F 31.9 °F 30.19 in North 3.0 mph 9.0 mph 87 % 0.00 in 0 W/m2
04:25 35.3 °F 31.8 °F 30.19 in Calm   9.0 mph 87 % 0.00 in 0 W/m2
04:30 35.3 °F 31.8 °F 30.20 in NNE 3.0 mph 7.0 mph 87 % 0.00 in 0 W/m2
04:35 35.2 °F 31.7 °F 30.20 in NE 3.0 mph 8.0 mph 87 % 0.00 in 0 W/m2
04:40 35.1 °F 31.6 °F 30.20 in Calm   8.0 mph 87 % 0.00 in 0 W/m2
04:45 35.1 °F 31.6 °F 30.20 in NNW 2.0 mph 5.0 mph 87 % 0.00 in 0 W/m2
04:50 35.1 °F 31.6 °F 30.20 in Calm   5.0 mph 87 % 0.00 in 0 W/m2
04:55 35.1 °F 31.6 °F 30.20 in NE 3.0 mph 4.0 mph 87 % 0.00 in 0 W/m2
05:00 35.1 °F 31.6 °F 30.20 in NNE 2.0 mph 4.0 mph 87 % 0.00 in 0 W/m2
05:05 35.0 °F 31.8 °F 30.21 in NE 5.0 mph 5.0 mph 88 % 0.00 in 0 W/m2
05:10 34.8 °F 31.6 °F 30.21 in NNE 6.0 mph 8.0 mph 88 % 0.00 in 0 W/m2
05:15 34.5 °F 31.3 °F 30.21 in NNE 5.0 mph 8.0 mph 88 % 0.00 in 0 W/m2
05:20 34.3 °F 31.1 °F 30.21 in North 4.0 mph 8.0 mph 88 % 0.00 in 0 W/m2
05:25 34.2 °F 31.0 °F 30.21 in NE 3.0 mph 8.0 mph 88 % 0.00 in 0 W/m2
05:30 34.1 °F 30.9 °F 30.22 in Calm   9.0 mph 88 % 0.00 in 0 W/m2
05:31 34.1 °F 30.9 °F 30.22 in North 1.0 mph 9.0 mph 88 % 0.00 in 0 W/m2
05:36 33.9 °F 31.0 °F 30.22 in NNE 3.0 mph 9.0 mph 89 % 0.00 in 0 W/m2
05:41 33.8 °F 30.6 °F 30.22 in NE 1.0 mph 8.0 mph 88 % 0.00 in 0 W/m2
05:46 33.8 °F 30.9 °F 30.22 in Calm   8.0 mph 89 % 0.00 in 0 W/m2
05:51 33.7 °F 30.8 °F 30.23 in NE 3.0 mph 7.0 mph 89 % 0.00 in 0 W/m2
05:56 33.8 °F 30.9 °F 30.22 in Calm   4.0 mph 89 % 0.00 in 0 W/m2
06:01 33.8 °F 30.9 °F 30.23 in Calm   5.0 mph 89 % 0.00 in 0 W/m2
06:06 33.8 °F 30.9 °F 30.24 in NE 1.0 mph 5.0 mph 89 % 0.00 in 0 W/m2
06:11 33.7 °F 30.8 °F 30.24 in North 2.0 mph 5.0 mph 89 % 0.00 in 0 W/m2
06:16 33.6 °F 31.0 °F 30.25 in NE 2.0 mph 5.0 mph 90 % 0.00 in 0 W/m2
06:21 33.6 °F 30.7 °F 30.25 in Calm   5.0 mph 89 % 0.00 in 0 W/m2
06:26 33.5 °F 30.6 °F 30.25 in NE 1.0 mph 5.0 mph 89 % 0.00 in 0 W/m2
06:31 33.4 °F 30.8 °F 30.26 in NNE 1.0 mph 5.0 mph 90 % 0.00 in 0 W/m2
06:36 33.3 °F 30.7 °F 30.27 in Calm   7.0 mph 90 % 0.00 in 5 W/m2
06:41 33.2 °F 30.6 °F 30.26 in NNE 3.0 mph 9.0 mph 90 % 0.00 in 5 W/m2
06:46 33.2 °F 30.6 °F 30.27 in NNE 7.0 mph 9.0 mph 90 % 0.00 in 5 W/m2
06:51 33.1 °F 30.5 °F 30.27 in Calm   8.0 mph 90 % 0.00 in 7 W/m2
06:56 33.1 °F 30.5 °F 30.27 in NE 1.0 mph 9.0 mph 90 % 0.00 in 11 W/m2
07:01 33.1 °F 30.5 °F 30.27 in Calm   9.0 mph 90 % 0.00 in 11 W/m2
07:06 33.1 °F 30.5 °F 30.28 in NNW 2.0 mph 8.0 mph 90 % 0.00 in 9 W/m2
07:07 33.1 °F 30.5 °F 30.28 in Calm   8.0 mph 90 % 0.00 in 9 W/m2
07:12 33.2 °F 30.6 °F 30.28 in Calm   4.0 mph 90 % 0.00 in 7 W/m2
07:17 33.2 °F 30.6 °F 30.27 in NNE 6.0 mph 6.0 mph 90 % 0.00 in 7 W/m2
07:22 33.2 °F 30.6 °F 30.28 in Calm   6.0 mph 90 % 0.00 in 7 W/m2
07:28 33.3 °F 30.7 °F 30.28 in Calm   7.0 mph 90 % 0.00 in 12 W/m2
07:33 33.2 °F 30.6 °F 30.28 in NNE 2.0 mph 7.0 mph 90 % 0.00 in 11 W/m2
07:38 33.2 °F 30.6 °F 30.28 in North 1.0 mph 5.0 mph 90 % 0.00 in 12 W/m2
07:43 33.3 °F 30.7 °F 30.28 in Calm   5.0 mph 90 % 0.00 in 18 W/m2
07:48 33.4 °F 30.8 °F 30.28 in East 1.0 mph 5.0 mph 90 % 0.00 in 23 W/m2
07:53 33.4 °F 30.8 °F 30.29 in NE 3.0 mph 5.0 mph 90 % 0.00 in 19 W/m2
07:58 33.3 °F 30.7 °F 30.29 in NNE 1.0 mph 7.0 mph 90 % 0.00 in 28 W/m2
08:03 33.3 °F 30.7 °F 30.29 in North 2.0 mph 7.0 mph 90 % 0.00 in 30 W/m2
08:08 33.3 °F 30.7 °F 30.29 in NNE 4.0 mph 6.0 mph 90 % 0.00 in 23 W/m2
08:13 33.5 °F 30.9 °F 30.30 in Calm   6.0 mph 90 % 0.00 in 23 W/m2
08:18 33.5 °F 30.9 °F 30.30 in Calm   7.0 mph 90 % 0.00 in 28 W/m2
08:23 33.5 °F 30.9 °F 30.31 in Calm   7.0 mph 90 % 0.00 in 21 W/m2
08:28 33.6 °F 30.7 °F 30.31 in Calm   6.0 mph 89 % 0.00 in 25 W/m2
08:33 33.5 °F 30.6 °F 30.30 in Calm   4.0 mph 89 % 0.00 in 25 W/m2
08:38 33.5 °F 30.6 °F 30.31 in Calm   4.0 mph 89 % 0.00 in 25 W/m2
08:41 33.7 °F 30.8 °F 30.30 in Calm   4.0 mph 89 % 0.00 in 28 W/m2
08:46 33.8 °F 30.9 °F 30.30 in Calm   5.0 mph 89 % 0.00 in 33 W/m2
08:51 33.8 °F 30.9 °F 30.30 in Calm   5.0 mph 89 % 0.00 in 33 W/m2
08:56 34.0 °F 31.1 °F 30.31 in Calm   5.0 mph 89 % 0.00 in 32 W/m2
09:01 34.1 °F 31.2 °F 30.31 in NE 3.0 mph 7.0 mph 89 % 0.00 in 30 W/m2
09:06 34.1 °F 30.9 °F 30.31 in NNE 3.0 mph 7.0 mph 88 % 0.00 in 30 W/m2
09:11 34.1 °F 30.9 °F 30.31 in Calm   7.0 mph 88 % 0.00 in 33 W/m2
09:16 34.1 °F 30.9 °F 30.31 in Calm   6.0 mph 88 % 0.00 in 53 W/m2
09:21 34.2 °F 31.0 °F 30.31 in North 2.0 mph 10.0 mph 88 % 0.00 in 58 W/m2
09:26 34.3 °F 31.1 °F 30.32 in NNE 5.0 mph 10.0 mph 88 % 0.00 in 62 W/m2
09:31 34.3 °F 30.8 °F 30.32 in North 4.0 mph 8.0 mph 87 % 0.00 in 56 W/m2
09:36 34.5 °F 31.3 °F 30.32 in NNW 1.0 mph 8.0 mph 88 % 0.00 in 79 W/m2
09:41 34.5 °F 31.0 °F 30.32 in NNW 4.0 mph 8.0 mph 87 % 0.00 in 84 W/m2
09:46 34.6 °F 31.1 °F 30.32 in NNW 2.0 mph 8.0 mph 87 % 0.00 in 95 W/m2
09:51 34.8 °F 31.3 °F 30.32 in NE 2.0 mph 8.0 mph 87 % 0.00 in 98 W/m2
09:56 34.9 °F 31.4 °F 30.32 in NNW 3.0 mph 7.0 mph 87 % 0.00 in 109 W/m2
10:01 35.0 °F 31.5 °F 30.32 in NNE 4.0 mph 7.0 mph 87 % 0.00 in 111 W/m2
10:06 35.1 °F 31.6 °F 30.32 in Calm   5.0 mph 87 % 0.00 in 114 W/m2
10:11 35.2 °F 31.7 °F 30.33 in NNE 2.0 mph 5.0 mph 87 % 0.00 in 91 W/m2
10:16 35.2 °F 31.7 °F 30.33 in Calm   5.0 mph 87 % 0.00 in 139 W/m2
10:21 35.3 °F 31.8 °F 30.33 in NW 1.0 mph 8.0 mph 87 % 0.00 in 169 W/m2
10:26 35.5 °F 31.7 °F 30.33 in Calm   8.0 mph 86 % 0.00 in 153 W/m2
10:31 35.6 °F 31.8 °F 30.33 in NW 3.0 mph 8.0 mph 86 % 0.00 in 109 W/m2
10:36 35.6 °F 31.8 °F 30.33 in NNE 4.0 mph 8.0 mph 86 % 0.00 in 111 W/m2
10:41 35.7 °F 31.9 °F 30.33 in Calm   7.0 mph 86 % 0.00 in 116 W/m2
10:46 35.9 °F 32.1 °F 30.33 in NNE 2.0 mph 7.0 mph 86 % 0.00 in 97 W/m2
10:51 35.9 °F 31.8 °F 30.33 in NW 5.0 mph 7.0 mph 85 % 0.00 in 163 W/m2
10:56 35.9 °F 31.8 °F 30.33 in North 6.0 mph 9.0 mph 85 % 0.00 in 146 W/m2
11:01 35.9 °F 31.8 °F 30.33 in North 3.0 mph 9.0 mph 85 % 0.00 in 137 W/m2
11:06 36.2 °F 32.4 °F 30.33 in North 9.0 mph 10.0 mph 86 % 0.00 in 130 W/m2
11:11 36.1 °F 31.7 °F 30.34 in NNW 8.0 mph 11.0 mph 84 % 0.00 in 172 W/m2
11:16 36.2 °F 31.8 °F 30.33 in North 3.0 mph 11.0 mph 84 % 0.00 in 178 W/m2
11:21 36.6 °F 32.2 °F 30.33 in NW 4.0 mph 10.0 mph 84 % 0.00 in 234 W/m2
11:26 36.6 °F 31.9 °F 30.33 in NNW 9.0 mph 11.0 mph 83 % 0.00 in 149 W/m2
11:31 36.7 °F 31.7 °F 30.33 in NE 2.0 mph 11.0 mph 82 % 0.00 in 176 W/m2
11:36 36.6 °F 31.6 °F 30.33 in NNE 7.0 mph 9.0 mph 82 % 0.00 in 109 W/m2
11:41 36.6 °F 31.6 °F 30.33 in NNW 3.0 mph 13.0 mph 82 % 0.00 in 79 W/m2
11:46 36.4 °F 31.7 °F 30.33 in NNW 2.0 mph 15.0 mph 83 % 0.00 in 120 W/m2
11:51 36.4 °F 32.0 °F 30.33 in NW 3.0 mph 15.0 mph 84 % 0.00 in 139 W/m2
11:56 36.5 °F 32.1 °F 30.33 in NNE 2.0 mph 10.0 mph 84 % 0.00 in 114 W/m2
12:01 36.6 °F 31.9 °F 30.33 in NE 5.0 mph 9.0 mph 83 % 0.00 in 218 W/m2
12:06 36.8 °F 31.5 °F 30.33 in NNE 4.0 mph 10.0 mph 81 % 0.00 in 204 W/m2
12:11 37.0 °F 31.1 °F 30.33 in NNE 3.0 mph 11.0 mph 79 % 0.00 in 188 W/m2
12:16 37.2 °F 31.0 °F 30.33 in North 5.0 mph 11.0 mph 78 % 0.00 in 265 W/m2
12:21 37.5 °F 30.9 °F 30.34 in WNW 7.0 mph 10.0 mph 77 % 0.00 in 153 W/m2
12:26 37.5 °F 30.6 °F 30.34 in North 1.0 mph 10.0 mph 76 % 0.00 in 267 W/m2
12:31 37.8 °F 31.2 °F 30.34 in North 5.0 mph 11.0 mph 77 % 0.00 in 188 W/m2
12:36 37.8 °F 31.2 °F 30.34 in NE 8.0 mph 12.0 mph 77 % 0.00 in 120 W/m2
12:41 37.7 °F 31.1 °F 30.34 in NE 5.0 mph 13.0 mph 77 % 0.00 in 144 W/m2
12:46 37.7 °F 31.1 °F 30.34 in NNW 2.0 mph 13.0 mph 77 % 0.00 in 125 W/m2
12:52 37.8 °F 31.2 °F 30.34 in NNE 4.0 mph 10.0 mph 77 % 0.00 in 151 W/m2
12:57 37.7 °F 31.1 °F 30.33 in NE 1.0 mph 10.0 mph 77 % 0.00 in 97 W/m2
13:02 37.6 °F 31.0 °F 30.33 in North 4.0 mph 13.0 mph 77 % 0.00 in 114 W/m2
13:07 37.4 °F 30.8 °F 30.34 in NNE 2.0 mph 13.0 mph 77 % 0.00 in 107 W/m2
13:12 37.3 °F 30.7 °F 30.34 in NNW 2.0 mph 7.0 mph 77 % 0.00 in 107 W/m2
13:17 37.2 °F 31.0 °F 30.35 in East 1.0 mph 10.0 mph 78 % 0.00 in 123 W/m2
13:22 37.1 °F 31.2 °F 30.36 in NNE 3.0 mph 10.0 mph 79 % 0.00 in 91 W/m2
13:27 36.9 °F 31.3 °F 30.36 in North 2.0 mph 10.0 mph 80 % 0.00 in 151 W/m2
13:32 36.7 °F 31.7 °F 30.36 in NNE 1.0 mph 7.0 mph 82 % 0.00 in 167 W/m2
13:37 36.8 °F 32.1 °F 30.35 in NNE 4.0 mph 7.0 mph 83 % 0.00 in 146 W/m2
13:42 36.7 °F 32.0 °F 30.35 in North 4.0 mph 6.0 mph 83 % 0.00 in 74 W/m2
13:47 36.7 °F 32.0 °F 30.35 in Calm   6.0 mph 83 % 0.00 in 79 W/m2
13:52 36.7 °F 32.0 °F 30.35 in Calm   6.0 mph 83 % 0.00 in 88 W/m2
13:57 36.8 °F 32.1 °F 30.36 in NE 2.0 mph 8.0 mph 83 % 0.00 in 185 W/m2
14:02 37.1 °F 32.4 °F 30.35 in NNW 5.0 mph 8.0 mph 83 % 0.00 in 229 W/m2
14:07 37.3 °F 32.3 °F 30.35 in NNE 4.0 mph 11.0 mph 82 % 0.00 in 127 W/m2
14:12 37.3 °F 32.3 °F 30.36 in NNW 2.0 mph 11.0 mph 82 % 0.00 in 158 W/m2
14:17 37.5 °F 32.5 °F 30.36 in ENE 2.0 mph 6.0 mph 82 % 0.00 in 178 W/m2
14:22 37.7 °F 32.7 °F 30.36 in Calm   7.0 mph 82 % 0.00 in 213 W/m2
14:27 37.9 °F 32.9 °F 30.36 in NW 5.0 mph 7.0 mph 82 % 0.00 in 188 W/m2
14:32 38.1 °F 33.1 °F 30.36 in NE 3.0 mph 7.0 mph 82 % 0.00 in 167 W/m2
14:37 38.2 °F 33.2 °F 30.36 in North 2.0 mph 7.0 mph 82 % 0.00 in 186 W/m2
14:42 37.9 °F 32.3 °F 30.36 in NNE 3.0 mph 7.0 mph 80 % 0.00 in 111 W/m2
14:47 37.8 °F 32.5 °F 30.36 in Calm   6.0 mph 81 % 0.00 in 137 W/m2
14:52 37.7 °F 32.7 °F 30.36 in NW 4.0 mph 6.0 mph 82 % 0.00 in 200 W/m2
14:57 37.9 °F 33.5 °F 30.36 in North 3.0 mph 7.0 mph 84 % 0.00 in 301 W/m2
15:02 37.8 °F 33.4 °F 30.36 in North 2.0 mph 7.0 mph 84 % 0.00 in 448 W/m2
15:07 37.7 °F 33.6 °F 30.36 in NNE 4.0 mph 6.0 mph 85 % 0.00 in 283 W/m2
15:12 37.7 °F 33.9 °F 30.36 in Calm   5.0 mph 86 % 0.00 in 211 W/m2
15:17 37.7 °F 33.9 °F 30.35 in Calm   6.0 mph 86 % 0.00 in 105 W/m2
15:22 37.4 °F 33.6 °F 30.36 in Calm   6.0 mph 86 % 0.00 in 121 W/m2
15:27 37.2 °F 33.4 °F 30.35 in NE 2.0 mph 6.0 mph 86 % 0.00 in 193 W/m2
15:32 37.1 °F 33.6 °F 30.36 in Calm   6.0 mph 87 % 0.00 in 160 W/m2
15:37 37.3 °F 33.8 °F 30.36 in Calm   5.0 mph 87 % 0.00 in 116 W/m2
15:42 37.1 °F 33.6 °F 30.35 in NNW 1.0 mph 5.0 mph 87 % 0.00 in 151 W/m2
15:47 37.2 °F 34.0 °F 30.35 in Calm   4.0 mph 88 % 0.00 in 292 W/m2
15:52 37.3 °F 34.1 °F 30.35 in Calm   4.0 mph 88 % 0.00 in 283 W/m2
15:57 37.7 °F 34.5 °F 30.35 in Calm   2.0 mph 88 % 0.00 in 348 W/m2
15:59 37.9 °F 34.7 °F 30.35 in NNW 1.0 mph 2.0 mph 88 % 0.00 in 424 W/m2
16:04 38.7 °F 35.7 °F 30.35 in WNW 2.0 mph 4.0 mph 89 % 0.00 in 381 W/m2
16:09 39.0 °F 35.7 °F 30.35 in NE 2.0 mph 4.0 mph 88 % 0.00 in 236 W/m2
16:14 39.3 °F 35.8 °F 30.36 in Calm   4.0 mph 87 % 0.00 in 83 W/m2
16:19 39.3 °F 35.5 °F 30.36 in Calm   4.0 mph 86 % 0.00 in 35 W/m2
16:24 39.2 °F 35.1 °F 30.37 in ENE 4.0 mph 7.0 mph 85 % 0.00 in 19 W/m2
16:29 38.5 °F 34.1 °F 30.37 in Calm   7.0 mph 84 % 0.00 in 25 W/m2
16:34 38.1 °F 33.7 °F 30.37 in Calm   7.0 mph 84 % 0.00 in 46 W/m2
16:39 37.8 °F 33.7 °F 30.37 in NE 6.0 mph 6.0 mph 85 % 0.00 in 51 W/m2
16:44 37.5 °F 33.4 °F 30.38 in Calm   6.0 mph 85 % 0.00 in 63 W/m2
16:49 37.4 °F 33.3 °F 30.38 in NW 3.0 mph 6.0 mph 85 % 0.00 in 105 W/m2
16:54 37.5 °F 33.7 °F 30.37 in Calm   6.0 mph 86 % 0.00 in 174 W/m2
16:59 37.8 °F 34.0 °F 30.37 in North 4.0 mph 6.0 mph 86 % 0.00 in 181 W/m2
17:04 38.0 °F 34.5 °F 30.38 in Calm   6.0 mph 87 % 0.00 in 155 W/m2
17:09 38.3 °F 34.5 °F 30.38 in NNW 2.0 mph 6.0 mph 86 % 0.00 in 116 W/m2
17:14 38.3 °F 34.5 °F 30.38 in North 4.0 mph 6.0 mph 86 % 0.00 in 100 W/m2
17:19 38.3 °F 34.5 °F 30.39 in North 4.0 mph 6.0 mph 86 % 0.00 in 100 W/m2
17:24 38.4 °F 34.6 °F 30.39 in NNW 5.0 mph 6.0 mph 86 % 0.00 in 90 W/m2
17:29 38.2 °F 34.1 °F 30.39 in NW 4.0 mph 8.0 mph 85 % 0.00 in 95 W/m2
17:34 38.3 °F 34.2 °F 30.39 in NNW 6.0 mph 8.0 mph 85 % 0.00 in 116 W/m2
17:39 38.2 °F 34.1 °F 30.39 in Calm   8.0 mph 85 % 0.00 in 95 W/m2
17:44 38.2 °F 34.1 °F 30.39 in Calm   5.0 mph 85 % 0.00 in 98 W/m2
17:49 38.4 °F 34.6 °F 30.39 in WNW 4.0 mph 6.0 mph 86 % 0.00 in 72 W/m2
17:54 38.2 °F 34.1 °F 30.39 in NW 4.0 mph 7.0 mph 85 % 0.00 in 74 W/m2
17:59 37.9 °F 33.8 °F 30.40 in NW 1.0 mph 7.0 mph 85 % 0.00 in 39 W/m2
18:04 37.7 °F 33.9 °F 30.40 in NNW 5.0 mph 5.0 mph 86 % 0.00 in 40 W/m2
18:09 37.5 °F 33.7 °F 30.40 in NNW 4.0 mph 5.0 mph 86 % 0.00 in 72 W/m2
18:14 37.2 °F 33.7 °F 30.40 in Calm   4.0 mph 87 % 0.00 in 69 W/m2
18:19 37.1 °F 33.6 °F 30.40 in NW 2.0 mph 5.0 mph 87 % 0.00 in 63 W/m2
18:24 37.0 °F 33.5 °F 30.41 in Calm   5.0 mph 87 % 0.00 in 67 W/m2
18:29 37.1 °F 33.9 °F 30.40 in Calm   4.0 mph 88 % 0.00 in 83 W/m2
18:32 37.2 °F 34.0 °F 30.40 in Calm   3.0 mph 88 % 0.00 in 93 W/m2
18:37 37.5 °F 34.3 °F 30.41 in Calm   2.0 mph 88 % 0.00 in 65 W/m2
18:42 37.5 °F 34.3 °F 30.41 in WNW 1.0 mph 5.0 mph 88 % 0.00 in 58 W/m2
18:47 37.5 °F 34.3 °F 30.41 in Calm   5.0 mph 88 % 0.00 in 62 W/m2
18:52 37.5 °F 34.3 °F 30.41 in Calm   4.0 mph 88 % 0.00 in 69 W/m2
18:57 37.6 °F 34.4 °F 30.41 in Calm   5.0 mph 88 % 0.00 in 35 W/m2
SE Aurora, Colorado Weather
Compliments of Weather Underground - 2 mb
top